User: anonymous   Login
Location: Bittelbronn
(48.4454°N, 8.5870°E)
Time: 20:26:30
(UTC+00:00)
Language:

SJ 16-02 - Orbit

View from above orbital plane
View from above orbital plane
View from above satellite
View from above satellite

Ground track
Ground track

The orbit data is extracted from the following two-line orbital elements,

1 41634U 16043A   24197.60098768  .00002010  00000-0  21428-3 0  9992
2 41634  75.0004 163.5713 0009068 298.4893  61.5380 14.89406638436520
Epoch (UTC): 15 July 2024 14:25:25
Eccentricity: 0.0009068
inclination: 75.0004°
perigee height: 593 km
apogee height: 606 km
right ascension of ascending node: 163.5713°
argument of perigee: 298.4893°
revolutions per day: 14.89406638
mean anomaly at epoch: 61.5380°
orbit number at epoch: 43652

The dashed part of the orbit path shows where the satellite is in the earth's shadow,  

DLR